Weather History for Slayton, MN

Change the Weather History Date:

Thursday, September 5, 2013

  Actual Average (KOTG) Record (KOTG)
Temperature  
Mean Temperature 73 °F -  
Max Temperature 83 °F 74 °F 87 °F (1978)
Min Temperature 63 °F 54 °F 38 °F (1984)
Cooling Degree Days 8    
Growing Degree Days 23 (Base 50)    
Moisture  
Dew Point 65 °F    
Average Humidity 80    
Maximum Humidity 99    
Minimum Humidity 53    
Precipitation  
Precipitation 0.00 in - - ()
Sea Level Pressure  
Sea Level Pressure 30.17 in    
Wind  
Wind Speed 3 mph (SSE)    
Max Wind Speed 13 mph    
Max Gust Speed -    
Visibility 10 miles    
Events      
Averages and records for this station are not official NWS values.
T = Trace of Precipitation, MM = Missing Value Source: NWS Daily Summary

Daily Weather History Graph

Daily Weather History Graph

Search for Another Location

Airport:

Trip Planner

Search our weather history database for the weather conditions in past years. The results will help you decide how hot, cold, wet, or windy it might be!

Date:

Astronomy

Sep. 05, 2013 Rise Set
Actual Time 6:51 AM CDT 7:51 PM CDT
Civil Twilight 6:21 AM CDT 8:20 PM CDT
Nautical Twilight 5:46 AM CDT 8:55 PM CDT
Astronomical Twilight 5:09 AM CDT 9:32 PM CDT
Moon 7:06 AM CDT (9/5) 7:40 PM CDT (9/5)
Length of Visible Light 13h 58m
Length of Day
13h 00m
New Moon, 0% of the Moon is Illuminated
Sep 5
New Moon
Sep 12
First Quarter
Sep 19
Full
Sep 26
Last Quarter
Oct 4
New

Hourly Weather History & Observations

Time (CDT) Temp. Heat Index Dew Point Humidity Pressure Visibility Wind Dir Wind Speed Gust Speed Precip Events Conditions
12:13 AM 68.0 °F - 65.8 °F 93% 30.17 in 10.0 mi Calm Calm - N/A   Clear
12:33 AM 66.6 °F - 64.9 °F 95% 30.17 in 10.0 mi Calm Calm - N/A   Clear
12:53 AM 66.7 °F - 64.8 °F 93% 30.17 in 10.0 mi Calm Calm - N/A   Clear
1:13 AM 66.9 °F - 64.9 °F 93% 30.17 in 10.0 mi Calm Calm - N/A   Clear
1:33 AM 66.9 °F - 63.9 °F 90% 30.17 in 10.0 mi Calm Calm - N/A   Clear
1:53 AM 65.5 °F - 64.0 °F 95% 30.18 in 10.0 mi Calm Calm - N/A   Clear
2:13 AM 65.7 °F - 64.2 °F 95% 30.18 in 10.0 mi Calm Calm - N/A   Clear
2:33 AM 68.0 °F - 63.9 °F 87% 30.18 in 10.0 mi Calm Calm - N/A   Clear
2:53 AM 70.2 °F - 63.1 °F 78% 30.18 in 10.0 mi Calm Calm - N/A   Clear
3:13 AM 68.2 °F - 63.5 °F 85% 30.18 in 10.0 mi Calm Calm - N/A   Clear
3:33 AM 67.1 °F - 63.5 °F 88% 30.18 in 10.0 mi Calm Calm - N/A   Clear
3:52 AM 65.3 °F - 63.0 °F 92% 30.18 in 10.0 mi Calm Calm - N/A   Clear
4:13 AM 64.4 °F - 62.8 °F 94% 30.18 in 10.0 mi Calm Calm - N/A   Clear
4:33 AM 64.2 °F - 62.4 °F 94% 30.18 in 10.0 mi Calm Calm - N/A   Clear
4:53 AM 63.9 °F - 61.7 °F 93% 30.19 in 10.0 mi Calm Calm - N/A   Clear
5:13 AM 64.2 °F - 62.2 °F 93% 30.19 in 10.0 mi Calm Calm - N/A   Mostly Cloudy
5:33 AM 64.2 °F - 62.6 °F 94% 30.19 in 10.0 mi Calm Calm - N/A   Overcast
5:53 AM 64.4 °F - 62.4 °F 93% 30.19 in 10.0 mi Calm Calm - N/A   Mostly Cloudy
6:13 AM 64.6 °F - 63.1 °F 95% 30.20 in 10.0 mi Calm Calm - N/A   Scattered Clouds
6:33 AM 64.6 °F - 64.0 °F 98% 30.20 in 7.0 mi Calm Calm - N/A   Clear
6:53 AM 63.0 °F - 62.4 °F 98% 30.20 in 5.0 mi Calm Calm - N/A   Clear
7:13 AM 63.1 °F - 62.8 °F 99% 30.20 in 2.5 mi Calm Calm - N/A   Clear
7:33 AM 64.4 °F - 63.9 °F 98% 30.20 in 5.0 mi Calm Calm - N/A   Clear
7:53 AM 65.1 °F - 64.4 °F 98% 30.20 in 7.0 mi Calm Calm - N/A   Clear
8:13 AM 66.4 °F - 64.6 °F 94% 30.20 in 10.0 mi Calm Calm - N/A   Clear
8:33 AM 68.9 °F - 65.1 °F 88% 30.20 in 10.0 mi SE 3.5 mph - N/A   Clear
8:53 AM 69.8 °F - 64.8 °F 84% 30.20 in 10.0 mi ESE 4.6 mph - N/A   Clear
9:13 AM 70.9 °F - 64.9 °F 81% 30.20 in 10.0 mi SE 3.5 mph - N/A   Clear
9:33 AM 72.0 °F - 64.6 °F 77% 30.21 in 10.0 mi SE 4.6 mph - N/A   Clear
9:52 AM 72.9 °F - 64.8 °F 76% 30.21 in 10.0 mi Calm Calm - N/A   Clear
10:13 AM 74.3 °F - 64.9 °F 72% 30.21 in 10.0 mi SE 3.5 mph - N/A   Clear
10:33 AM 74.8 °F - 65.3 °F 72% 30.21 in 10.0 mi Calm Calm - N/A   Clear
10:54 AM 75.4 °F - 65.5 °F 71% 30.21 in 10.0 mi ESE 3.5 mph - N/A   Clear
11:13 AM 76.1 °F - 65.5 °F 70% 30.21 in 10.0 mi ESE 4.6 mph - N/A   Clear
11:33 AM 76.8 °F - 66.2 °F 70% 30.22 in 10.0 mi SSE 4.6 mph - N/A   Mostly Cloudy
11:53 AM 78.6 °F - 66.9 °F 67% 30.22 in 10.0 mi SSE 5.8 mph - N/A   Scattered Clouds
12:13 PM 78.8 °F - 66.6 °F 66% 30.22 in 10.0 mi SE 4.6 mph - N/A   Clear
12:33 PM 79.0 °F - 67.3 °F 67% 30.22 in 10.0 mi SE 5.8 mph - N/A   Mostly Cloudy
12:53 PM 80.1 °F 82.6 °F 67.6 °F 66% 30.20 in 10.0 mi SSE 5.8 mph - N/A   Scattered Clouds
1:13 PM 80.6 °F 83.2 °F 67.6 °F 65% 30.20 in 10.0 mi SSE 8.1 mph - N/A   Clear
1:33 PM 81.3 °F 83.8 °F 67.3 °F 62% 30.20 in 10.0 mi SSE 5.8 mph - N/A   Clear
1:53 PM 82.6 °F 85.1 °F 66.7 °F 59% 30.19 in 10.0 mi South 10.4 mph - N/A   Clear
2:12 PM 81.5 °F 83.4 °F 65.5 °F 58% 30.18 in 10.0 mi South 9.2 mph - N/A   Scattered Clouds
2:33 PM 82.6 °F 84.7 °F 66.0 °F 57% 30.17 in 10.0 mi SSE 9.2 mph - N/A   Overcast
2:53 PM 83.5 °F 85.3 °F 65.5 °F 54% 30.17 in 10.0 mi SSE 9.2 mph - N/A   Scattered Clouds
3:13 PM 83.5 °F 85.1 °F 64.9 °F 53% 30.17 in 10.0 mi South 10.4 mph - N/A   Clear
3:33 PM 81.5 °F 83.4 °F 65.3 °F 58% 30.16 in 10.0 mi SSE 11.5 mph - N/A   Mostly Cloudy
3:53 PM 81.7 °F 83.6 °F 65.8 °F 58% 30.17 in 10.0 mi SSE 10.4 mph - N/A   Overcast
4:13 PM 80.8 °F 83.2 °F 66.9 °F 63% 30.17 in 10.0 mi SSE 6.9 mph - N/A   Overcast
4:33 PM 80.8 °F 83.3 °F 67.5 °F 64% 30.16 in 10.0 mi South 11.5 mph - N/A   Mostly Cloudy
4:53 PM 79.9 °F - 66.2 °F 63% 30.16 in 10.0 mi SSE 9.2 mph - N/A   Scattered Clouds
5:13 PM 78.8 °F - 67.6 °F 68% 30.15 in 10.0 mi SSE 8.1 mph - N/A   Mostly Cloudy
5:33 PM 78.8 °F - 67.3 °F 68% 30.15 in 10.0 mi South 10.4 mph - N/A   Overcast
5:53 PM 78.4 °F - 68.4 °F 71% 30.15 in 10.0 mi SSE 8.1 mph - N/A   Overcast
6:13 PM 77.9 °F - 65.8 °F 66% 30.14 in 10.0 mi SSE 8.1 mph - N/A   Mostly Cloudy
6:32 PM 77.0 °F - 66.0 °F 69% 30.14 in 10.0 mi South 12.7 mph - N/A   Scattered Clouds
6:53 PM 75.4 °F - 67.1 °F 75% 30.14 in 10.0 mi SSE 6.9 mph - N/A   Scattered Clouds
7:15 PM 75.0 °F - 67.1 °F 76% 30.13 in 10.0 mi SSE 6.9 mph - N/A   Scattered Clouds
7:33 PM 73.8 °F - 66.7 °F 79% 30.13 in 10.0 mi SSE 6.9 mph - N/A   Scattered Clouds
7:53 PM 72.9 °F - 65.3 °F 77% 30.12 in 10.0 mi SSE 6.9 mph - N/A   Scattered Clouds
8:14 PM 70.5 °F - 65.3 °F 83% 30.13 in 10.0 mi SSE 5.8 mph - N/A   Clear
8:32 PM 69.3 °F - 65.3 °F 87% 30.12 in 10.0 mi SSE 4.6 mph - N/A   Clear
8:53 PM 68.5 °F - 64.9 °F 88% 30.13 in 10.0 mi SSE 5.8 mph - N/A   Clear
9:13 PM 67.8 °F - 64.4 °F 89% 30.13 in 10.0 mi SE 5.8 mph - N/A   Clear
9:33 PM 67.1 °F - 63.7 °F 89% 30.13 in 10.0 mi SE 4.6 mph - N/A   Clear
9:53 PM 66.0 °F - 63.3 °F 91% 30.13 in 10.0 mi SE 3.5 mph - N/A   Clear
10:13 PM 65.3 °F - 62.8 °F 92% 30.12 in 10.0 mi SSE 4.6 mph - N/A   Clear
10:33 PM 64.6 °F - 62.6 °F 93% 30.12 in 10.0 mi SSE 4.6 mph - N/A   Clear
10:53 PM 64.6 °F - 61.9 °F 91% 30.12 in 10.0 mi SSE 3.5 mph - N/A   Clear
11:12 PM 64.9 °F - 61.7 °F 89% 30.13 in 10.0 mi Calm Calm - N/A   Clear
11:33 PM 64.4 °F - 61.5 °F 90% 30.13 in 10.0 mi South 3.5 mph - N/A   Clear
11:53 PM 63.5 °F - 61.2 °F 92% 30.13 in 10.0 mi South 5.8 mph - N/A   Clear